San Jose, Costa Rica

2:38 PM CST on March 24, 2017 (GMT -0600)
Juan Santamaria International Airport

Weather History for MROC - December, 2012

Change the Weather History Date:

Tuesday, December 18, 2012

  Actual Average Record
Temperature  
Mean Temperature 73 °F -  
Max Temperature 84 °F 80 °F 84 °F (1996)
Min Temperature 62 °F 63 °F 50 °F (2007)
Cooling Degree Days 8    
Growing Degree Days 23 (Base 50)    
Moisture  
Dew Point 60 °F    
Average Humidity 67    
Maximum Humidity 94    
Minimum Humidity 25    
Precipitation  
Precipitation 0.00 in 0.02 in - ()
Sea Level Pressure  
Sea Level Pressure 29.94 in    
Wind  
Wind Speed 6 mph ()    
Max Wind Speed 12 mph    
Max Gust Speed -    
Visibility 7.5 miles    
Events Fog , Rain    
Averages and records for this station are not official NWS values.
T = Trace of Precipitation, MM = Missing Value Source: Averaged Metar Reports

Daily Weather History Graph

Daily Weather History Graph

Search for Another Location

Airport or City:

Trip Planner

Search our weather history database for the weather conditions in past years. The results will help you decide how hot, cold, wet, or windy it might be!

Date:

Astronomy

Dec. 18, 2012 Rise Set
Actual Time 5:47 AM CST 5:20 PM CST
Civil Twilight 5:24 AM CST 5:42 PM CST
Nautical Twilight 4:58 AM CST 6:09 PM CST
Astronomical Twilight 4:32 AM CST 6:35 PM CST
Moon 10:23 AM CST (12/18) 10:42 PM CST (12/18)
Length of Visible Light 12h 18m
Length of Day
11h 32m
Waxing Crescent, 35% of the Moon is Illuminated
Dec 18
Waxing Crescent
Dec 19
First Quarter
Dec 28
Full
Jan 4
Last Quarter
Jan 11
New

Hourly Weather History & Observations

Time (CST) Temp. Heat Index Dew Point Humidity Pressure Visibility Wind Dir Wind Speed Gust Speed Precip Events Conditions
12:00 AM 65 °F - 60 °F 80% 29.81 in 12 mi ENE 3.5 mph - -  
12:00 AM 64.4 °F - 60.8 °F 88% 29.99 in - ENE 3.5 mph - N/A   Clear
1:00 AM 66.2 °F - 59.0 °F 78% 29.97 in - NE 5.8 mph - N/A   Clear
2:00 AM 66.2 °F - 59.0 °F 78% 29.96 in - NE 9.2 mph - N/A   Clear
3:00 AM 66 °F - 58 °F 69% 29.81 in 12 mi ENE 6.9 mph - -  
3:00 AM 66.2 °F - 59.0 °F 78% 29.96 in - ENE 6.9 mph - N/A   Clear
4:00 AM 64.4 °F - 57.2 °F 77% 29.97 in - ENE 4.6 mph - N/A   Clear
5:00 AM 64.4 °F - 57.2 °F 77% 29.99 in - NE 4.6 mph - N/A   Clear
6:00 AM 66 °F - 58 °F 67% 29.86 in 12 mi ENE 6.9 mph - -   Clear
6:00 AM 66.2 °F - 57.2 °F 73% 29.99 in - ENE 6.9 mph - N/A   Clear
7:00 AM 69.8 °F - 57.2 °F 64% 30.00 in - ENE 6.9 mph - N/A   Clear
8:00 AM 73.4 °F - 59.0 °F 61% 30.02 in - ESE 10.4 mph - N/A   Clear
9:00 AM 78 °F - 54 °F 34% 29.85 in 12 mi ESE 11.5 mph - -   Clear
9:00 AM 77.0 °F - 55.4 °F 47% 30.02 in - ESE 11.5 mph - N/A   Clear
10:00 AM 80.6 °F 80.3 °F 53.6 °F 39% 30.02 in - ESE 9.2 mph - N/A   Clear
11:00 AM 84.2 °F 82.8 °F 53.6 °F 35% 30.00 in - SE 8.1 mph - N/A   Clear
12:00 PM 84 °F - 54 °F 25% 29.79 in 12 mi ESE 5.8 mph - -   Scattered Clouds
12:00 PM 84.2 °F 82.8 °F 53.6 °F 35% 29.98 in - ESE 5.8 mph - N/A   Clear
1:00 PM 82.4 °F 81.4 °F 53.6 °F 37% 29.95 in 6.2 mi East 5.8 mph - N/A   Partly Cloudy
1:42 PM 78.8 °F - 64.4 °F 61% 29.94 in 6.2 mi SW 6.9 mph - N/A   Scattered Clouds
2:00 PM 78.8 °F - 64.4 °F 61% 29.93 in 6.2 mi SW 6.9 mph - N/A   Scattered Clouds
3:00 PM 81 °F - 65 °F 48% 29.79 in 12 mi SW 9.2 mph - -   Partly Cloudy
3:00 PM 80.6 °F 82.3 °F 64.4 °F 58% 29.91 in 6.2 mi SW 9.2 mph - N/A   Scattered Clouds
4:00 PM 75.2 °F - 68.0 °F 78% 29.92 in 6.2 mi WSW 11.5 mph - N/A   Partly Cloudy
5:00 PM 71.6 °F - 66.2 °F 83% 29.94 in 6.2 mi WSW 8.1 mph - N/A   Scattered Clouds
5:35 PM 69.8 °F - 66.2 °F 88% 29.95 in 5.6 mi WSW 5.8 mph - N/A Rain Rain
6:00 PM 69 °F - 67 °F 89% 29.86 in 2 mi WSW 3.5 mph - - Fog Patches of Fog
6:00 PM 69.8 °F - 66.2 °F 88% 29.95 in 4.3 mi WSW 3.5 mph - N/A   Scattered Clouds
7:00 PM 69.8 °F - 66.2 °F 88% 29.98 in 4.3 mi WNW 4.6 mph - N/A Fog Patches of Fog
8:00 PM 68.0 °F - 66.2 °F 94% 29.99 in 3.7 mi Calm Calm - N/A Fog Patches of Fog
9:00 PM 67 °F - 59 °F 68% 29.85 in 9 mi ESE 3.5 mph - -   Partly Cloudy
9:00 PM 66.2 °F - 59.0 °F 78% 30.01 in 6.2 mi ESE 3.5 mph - N/A   Scattered Clouds
10:00 PM 66.2 °F - 59.0 °F 78% 30.01 in 6.2 mi East 3.5 mph - N/A   Partly Cloudy
11:00 PM 66.2 °F - 57.2 °F 73% 30.00 in - SE 5.8 mph - N/A   Clear